Total_Precipitation_Accumulation
0.01 0.01 0.01 0.02 0.02 0.01 0.01 0.02 0.02 0.03 0.01 0.00 0.00 0.00 0.00 0.00 0.00 0.00 0.00 0.00 0.00 0.00 0.02 0.00 0.00 0.00 0.00 0.00 0.06 0.29 0.53 0.33 0.02 0.01 0.01 0.00 0.00 0.00 0.00 0.00 0.01 0.03 0.09 0.06 0.08
0.01 0.02 0.02 0.02 0.01 0.01 0.02 0.02 0.02 0.04 0.02 0.00 0.00 0.00 0.00 0.00 0.00 0.00 0.00 0.01 0.05 0.07 0.04 0.01 0.01 0.02 0.02 0.02 0.11 0.31 0.57 0.34 0.09 0.07 0.03 0.00 0.00 0.00 0.00 0.02 0.06 0.08 0.17 0.09 0.05
0.03 0.02 0.02 0.02 0.01 0.01 0.02 0.02 0.02 0.03 0.03 0.00 0.00 0.00 0.00 0.00 0.00 0.00 0.00 0.01 0.04 0.08 0.12 0.08 0.06 0.08 0.04 0.04 0.10 0.41 0.47 0.20 0.12 0.16 0.08 0.02 0.00 0.00 0.01 0.04 0.01 0.03 0.03 0.10 0.14
0.06 0.05 0.02 0.01 0.01 0.02 0.01 0.02 0.02 0.03 0.04 0.01 0.00 0.00 0.00 0.00 0.00 0.00 0.00 0.00 0.00 0.13 0.18 0.10 0.09 0.11 0.06 0.03 0.04 0.26 0.30 0.25 0.19 0.23 0.20 0.07 0.01 0.00 0.00 0.01 0.03 0.06 0.09 0.15 0.14
0.11 0.08 0.04 0.01 0.02 0.02 0.01 0.01 0.02 0.03 0.05 0.01 0.00 0.00 0.00 0.00 0.00 0.00 0.00 0.00 0.00 0.07 0.10 0.10 0.13 0.14 0.08 0.01 0.03 0.07 0.16 0.22 0.40 0.22 0.26 0.13 0.02 0.01 0.01 0.00 0.08 0.24 0.15 0.14 0.20
0.13 0.09 0.04 0.03 0.02 0.02 0.01 0.01 0.01 0.03 0.06 0.01 0.00 0.00 0.00 0.00 0.00 0.00 0.00 0.01 0.02 0.13 0.13 0.18 0.21 0.20 0.14 0.06 0.03 0.01 0.06 0.12 0.55 0.54 0.32 0.22 0.05 0.02 0.01 0.01 0.16 0.22 0.28 0.21 0.21
0.12 0.08 0.07 0.04 0.02 0.02 0.01 0.01 0.01 0.01 0.02 0.02 0.00 0.00 0.00 0.00 0.00 0.00 0.00 0.02 0.01 0.06 0.17 0.21 0.52 0.42 0.27 0.11 0.02 0.03 0.09 0.19 0.63 0.72 0.72 0.49 0.12 0.03 0.00 0.02 0.06 0.16 0.34 0.30 0.29
0.21 0.12 0.09 0.04 0.02 0.01 0.00 0.00 0.00 0.00 0.00 0.01 0.00 0.00 0.00 0.00 0.00 0.00 0.00 0.03 0.00 0.01 0.13 0.16 0.67 0.50 0.40 0.13 0.07 0.06 0.18 0.28 0.38 0.76 0.95 1.05 0.40 0.02 0.02 0.02 0.03 0.03 0.16 0.37 0.37
0.15 0.08 0.07 0.05 0.02 0.00 0.00 0.00 0.00 0.00 0.00 0.00 0.00 0.00 0.00 0.00 0.00 0.00 0.00 0.00 0.01 0.03 0.09 0.16 0.37 0.50 0.41 0.21 0.14 0.12 0.12 0.16 0.38 0.49 1.01 1.01 0.59 0.12 0.03 0.02 0.01 0.01 0.02 0.12 0.25
0.23 0.18 0.11 0.06 0.02 0.00 0.00 0.00 0.00 0.00 0.00 0.00 0.00 0.00 0.00 0.00 0.00 0.00 0.00 0.00 0.02 0.03 0.10 0.37 0.53 0.53 0.50 0.31 0.16 0.05 0.06 0.07 0.31 0.49 0.75 0.83 0.64 0.26 0.07 0.02 0.00 0.00 0.00 0.01 0.06
0.27 0.20 0.17 0.09 0.01 0.00 0.00 0.00 0.00 0.00 0.00 0.00 0.00 0.00 0.00 0.00 0.00 0.00 0.00 0.00 0.01 0.04 0.14 0.29 0.32 0.29 0.38 0.19 0.04 0.01 0.00 0.02 0.14 0.29 0.47 0.58 0.59 0.38 0.12 0.03 0.00 0.00 0.00 0.00 0.00
0.25 0.19 0.14 0.07 0.02 0.00 0.00 0.00 0.00 0.00 0.00 0.00 0.00 0.00 0.00 0.00 0.00 0.00 0.00 0.01 0.04 0.09 0.20 0.15 0.11 0.07 0.27 0.25 0.05 0.05 0.05 0.05 0.15 0.25 0.22 0.33 0.46 0.40 0.20 0.04 0.00 0.00 0.00 0.00 0.00
0.28 0.25 0.21 0.08 0.01 0.00 0.00 0.00 0.00 0.00 0.00 0.00 0.00 0.00 0.00 0.01 0.00 0.00 0.02 0.07 0.15 0.27 0.29 0.13 0.10 0.07 0.35 0.24 0.04 0.05 0.05 0.11 0.14 0.40 0.16 0.09 0.18 0.30 0.12 0.01 0.00 0.00 0.00 0.00 0.00
0.30 0.22 0.16 0.05 0.01 0.00 0.00 0.00 0.00 0.00 0.01 0.01 0.00 0.00 0.00 0.05 0.05 0.00 0.03 0.21 0.35 0.40 0.21 0.24 0.10 0.10 0.43 0.11 0.03 0.01 0.06 0.10 0.09 0.17 0.22 0.07 0.06 0.14 0.12 0.00 0.00 0.00 0.00 0.00 0.00
0.28 0.22 0.14 0.03 0.00 0.00 0.00 0.00 0.00 0.00 0.00 0.00 0.00 0.00 0.00 0.01 0.02 0.01 0.05 0.16 0.21 0.17 0.17 0.32 0.34 0.54 0.37 0.05 0.05 0.03 0.06 0.07 0.09 0.05 0.15 0.13 0.07 0.03 0.09 0.02 0.00 0.00 0.00 0.00 0.00
0.33 0.24 0.14 0.05 0.00 0.00 0.00 0.00 0.00 0.00 0.00 0.00 0.00 0.00 0.00 0.01 0.01 0.04 0.07 0.12 0.17 0.24 0.11 0.28 0.54 0.49 0.08 0.03 0.02 0.07 0.06 0.08 0.08 0.07 0.08 0.05 0.01 0.01 0.01 0.01 0.00 0.00 0.00 0.00 0.00
0.33 0.23 0.13 0.03 0.00 0.00 0.00 0.00 0.00 0.00 0.00 0.00 0.00 0.00 0.00 0.01 0.01 0.01 0.01 0.03 0.06 0.10 0.09 0.09 0.20 0.10 0.04 0.03 0.07 0.13 0.03 0.16 0.22 0.22 0.02 0.00 0.00 0.00 0.00 0.00 0.00 0.00 0.00 0.00 0.00
0.30 0.24 0.12 0.02 0.00 0.00 0.00 0.00 0.00 0.00 0.00 0.00 0.00 0.00 0.00 0.00 0.00 0.00 0.00 0.00 0.01 0.00 0.01 0.09 0.10 0.02 0.02 0.01 0.10 0.12 0.02 0.02 0.05 0.04 0.00 0.00 0.00 0.00 0.00 0.00 0.00 0.00 0.00 0.00 0.00
0.33 0.22 0.10 0.01 0.00 0.00 0.00 0.00 0.00 0.00 0.00 0.00 0.00 0.00 0.00 0.00 0.00 0.00 0.00 0.00 0.00 0.00 0.00 0.00 0.06 0.00 0.00 0.01 0.07 0.06 0.00 0.00 0.00 0.00 0.00 0.00 0.00 0.00 0.00 0.00 0.00 0.00 0.00 0.00 0.00
0.26 0.18 0.06 0.00 0.00 0.00 0.00 0.00 0.00 0.00 0.00 0.00 0.00 0.00 0.00 0.00 0.00 0.00 0.00 0.00 0.00 0.00 0.00 0.00 0.01 0.00 0.00 0.01 0.02 0.00 0.00 0.00 0.00 0.00 0.00 0.00 0.00 0.00 0.00 0.00 0.00 0.00 0.00 0.00 0.00
0.21 0.15 0.04 0.00 0.00 0.00 0.00 0.00 0.00 0.00 0.00 0.00 0.00 0.00 0.00 0.00 0.00 0.00 0.00 0.00 0.00 0.00 0.00 0.00 0.00 0.00 0.02 0.01 0.01 0.00 0.00 0.00 0.00 0.00 0.00 0.00 0.00 0.00 0.00 0.00 0.00 0.00 0.00 0.00 0.00
0.11 0.07 0.01 0.00 0.00 0.00 0.00 0.00 0.00 0.00 0.00 0.00 0.00 0.00 0.00 0.00 0.00 0.00 0.00 0.00 0.00 0.00 0.00 0.00 0.00 0.00 0.00 0.00 0.00 0.00 0.00 0.00 0.00 0.00 0.00 0.00 0.00 0.00 0.00 0.00 0.00 0.00 0.00 0.00 0.00
0.12 0.05 0.00 0.00 0.00 0.00 0.00 0.00 0.00 0.00 0.00 0.00 0.00 0.00 0.00 0.00 0.00 0.00 0.00 0.00 0.00 0.00 0.00 0.00 0.00 0.00 0.00 0.00 0.00 0.00 0.00 0.00 0.00 0.00 0.00 0.00 0.00 0.00 0.00 0.00 0.00 0.00 0.00 0.00 0.00
0.11 0.02 0.01 0.01 0.00 0.00 0.00 0.00 0.00 0.00 0.00 0.00 0.00 0.00 0.00 0.00 0.00 0.00 0.00 0.00 0.00 0.00 0.00 0.00 0.00 0.00 0.00 0.00 0.00 0.00 0.00 0.00 0.00 0.00 0.00 0.00 0.00 0.00 0.00 0.00 0.00 0.00 0.00 0.00 0.00
0.04 0.00 0.00 0.01 0.00 0.00 0.00 0.00 0.00 0.00 0.00 0.00 0.00 0.00 0.00 0.00 0.00 0.00 0.00 0.00 0.00 0.00 0.00 0.00 0.00 0.00 0.00 0.00 0.00 0.00 0.00 0.00 0.00 0.00 0.00 0.00 0.00 0.00 0.00 0.00 0.00 0.00 0.00 0.00 0.00
0.00 0.00 0.00 0.00 0.00 0.00 0.00 0.00 0.00 0.00 0.00 0.00 0.00 0.00 0.00 0.00 0.00 0.00 0.00 0.00 0.00 0.00 0.00 0.00 0.00 0.00 0.00 0.00 0.00 0.00 0.00 0.00 0.00 0.00 0.00 0.00 0.00 0.00 0.00 0.00 0.00 0.00 0.00 0.00 0.00
0.00 0.00 0.00 0.00 0.00 0.00 0.00 0.00 0.00 0.00 0.00 0.00 0.00 0.00 0.00 0.00 0.00 0.00 0.00 0.00 0.00 0.00 0.00 0.00 0.00 0.00 0.00 0.00 0.00 0.00 0.00 0.00 0.00 0.00 0.00 0.00 0.00 0.00 0.00 0.00 0.00 0.00 0.00 0.00 0.00